Home > Weather > Shanghai > Past weeks

Flag for China Weather for the Past 2 Weeks in Shanghai, Shanghai Municipality, China

Now
77 °F

Passing clouds.


Feels Like: 79 °F
Forecast: 63 / 82 °F
Wind: 8 mph from South

Location: Shanghai Hongqiao Airport

Current Time: May 5, 2016 at 3:15:26 PM

Latest Report: May 5, 2016 at 2:30 PM


Visibility: N/A

Pressure: 29.74 "Hg

Humidity: 79%

Dew Point: 70 °F

Location of ShanghaiLocation

Historic Weather in Shanghai — Graph

°F

Shanghai Temperature Yesterday

Maximum temperature yesterday: 86 °F (at 12:30 PM)
Minimum temperature yesterday: 61 °F (at 2:30 AM)
Average temperature yesterday: 74 °F

High & Low Weather Summary for the Past Weeks

 TemperatureHumidityPressure
High86 °F (May 4, 12:30 PM)100% (Apr 20, 7:30 PM)30.07 "Hg (Apr 20, 7:30 PM)
Low54 °F (Apr 29, 4:00 AM)25% (May 4, 1:30 PM)29.53 "Hg (May 3, 12:30 AM)
Average67 °F72%29.85 "Hg
* Reported Apr 20 2:00 PM — May 5 2:00 PM, Shanghai, Weather by CustomWeather, © 2016

Note: Actual official high and low records may vary slightly from our data, if they occured in-between our weather recording intervals... More about our weather records

Advertising

Shanghai Weather History for the Previous 24 Hours

Scroll right to see more
 ConditionsComfort  
Time TempWeatherWind HumidityBarometerVisibility
2:00 PM
Thu, May 5
77 °FPassing clouds.6 mph79%29.74 "HgN/A
1:30 PM77 °FPassing clouds.6 mph79%29.74 "HgN/A
1:00 PM73 °FSunny.10 mph89%29.74 "Hg10 mi
12:30 PM73 °FSprinkles. Scattered clouds.15 mph89%29.74 "HgN/A
12:00 PM75 °FSunny.13 mph78%29.77 "Hg10 mi
11:30 AM77 °FSunny.8 mph74%29.80 "Hg10 mi
11:00 AM77 °FSunny.8 mph79%29.77 "Hg10 mi
10:30 AM75 °FSunny.8 mph83%29.80 "Hg10 mi
10:00 AM75 °FSunny.8 mph83%29.80 "Hg10 mi
9:30 AM75 °FSunny.6 mph83%29.80 "Hg10 mi
9:00 AM75 °FSunny.8 mph78%29.80 "Hg10 mi
8:30 AM75 °FSunny.8 mph78%29.80 "Hg10 mi
8:00 AM73 °FSunny.10 mph83%29.80 "Hg10 mi
7:30 AM73 °FSunny.8 mph83%29.80 "Hg10 mi
7:00 AM72 °FSunny.10 mph88%29.80 "Hg10 mi
6:30 AM72 °FSunny.10 mph88%29.80 "Hg10 mi
6:00 AM72 °FSunny.10 mph88%29.77 "Hg10 mi
5:30 AM72 °FSunny.10 mph88%29.77 "Hg10 mi
5:00 AM72 °FClear.10 mph88%29.77 "Hg10 mi
4:30 AM72 °FClear.8 mph88%29.77 "Hg10 mi
4:00 AM70 °FClear.8 mph88%29.77 "Hg10 mi
3:30 AM70 °FClear.8 mph88%29.80 "Hg10 mi
3:00 AM70 °FClear.10 mph88%29.80 "Hg10 mi
2:30 AM70 °FClear.13 mph88%29.80 "Hg10 mi
2:00 AM70 °FClear.10 mph88%29.80 "Hg10 mi
1:30 AM70 °FClear.10 mph88%29.80 "Hg10 mi
1:00 AM70 °FClear.10 mph88%29.80 "Hg10 mi
12:30 AM70 °FClear.10 mph83%29.83 "Hg10 mi
12:00 AM70 °FClear.10 mph83%29.83 "Hg10 mi
11:30 PM
Wed, May 4
70 °FClear.10 mph83%29.83 "Hg10 mi
11:00 PM72 °FClear.10 mph78%29.86 "Hg10 mi
10:30 PM72 °FClear.10 mph78%29.86 "Hg10 mi
10:00 PM72 °FClear.13 mph73%29.86 "Hg10 mi
9:30 PM72 °FClear.15 mph73%29.86 "Hg10 mi
9:00 PM73 °FClear.13 mph69%29.86 "Hg10 mi
8:30 PM73 °FClear.10 mph65%29.86 "Hg10 mi
8:00 PM75 °FClear.10 mph61%29.83 "Hg10 mi
7:30 PM75 °FClear.10 mph57%29.83 "Hg10 mi
7:00 PM77 °FClear.10 mph54%29.83 "Hg10 mi
6:30 PM77 °FPassing clouds.10 mph54%29.83 "HgN/A
6:00 PM79 °FSunny.10 mph48%29.83 "Hg10 mi
5:30 PM79 °FSunny.13 mph39%29.83 "Hg10 mi
5:00 PM81 °FSunny.13 mph37%29.83 "Hg10 mi
4:30 PM81 °FSunny.13 mph34%29.83 "Hg10 mi
4:00 PM81 °FSunny.10 mph37%29.83 "Hg10 mi
3:30 PM82 °FPassing clouds.10 mph30%29.83 "HgN/A
3:00 PM84 °FPassing clouds.10 mph25%29.83 "HgN/A
Weather by CustomWeather, © 2016

See weather overviewHow to use our weather pages